sat.trackr.live / text

‹ back to catalog

ONEWEB-0268

NORAD 48986 · 2021-060V

PAYLOAD ACTIVE UNKNOWN

§ Identity

Operator
Country
UK
Launch date
2021-07-01
Launch site
VOSTO
Launch vehicle
Mass (kg)
RCS (m²)

Purposes: comms

External: N2YO · Heavens-Above · Gunter

§ Orbital elements

Epoch: 2026-05-25T00:08:40.903008Z

Period
109.37 min
Inclination
87.9108°
Eccentricity
0.0002117
Mean motion
13.16594403 rev/d
Perigee alt
1,196.2 km
Apogee alt
1,199.4 km
Semi-major
7,575.9 km
B*
1.1382e-4
RAAN
233.3835°
Arg perigee
97.4431°
Mean anomaly
262.6941°
Rev number
23,680

§ Raw data

ONEWEB-02681 48986U 21060V   26145.00602897  .00000056  00000+0  11382-3 0  99922 48986  87.9108 233.3835 0002117  97.4431 262.6941 13.16594403236801

JSON: /api/v1/satellites/48986 · /tle

For live sub-satellite position, see the globe view (requires WebGL).

§ Visibility from observer

Set your observer location to see the next 7 days of passes ≥ 10°. The values pass through the URL so the page stays shareable.

No JS? Fill the form by hand. The geolocation button needs JavaScript.